Date String (YYYY-MM-DD hh:mm:ss) UTC,Instrument flags,Ambient pressure (hPa),Sample flow (lpm),Bypass flow (lpm),Sample temperature (°C),Ambient temperature (°C),ASC tube jacket temperature (°C),LED temperature (°C),Box temperature (°C),Sample RH (%),Span deviation,Mass concentration (μg/m³),Mass concentration (μg/m³),Mass concentration (μg/m³)
DateTimeUTC,F1_M11,P_M11,Q1_M11,Q2_M11,T1_M11,T2_M11,T3_M11,T4_M11,T5_M11,U1_M11,ZSPAN_M11,X0_M11,X2_M11,X1_M11
2022-05-29 23:00:00,,0810.7,5.00,0.00,29.5,28.5,00.0,38.5,31.3,21.4,0000.0,0010.93,0003.24,0001.38
2022-05-29 23:01:00,,0810.6,5.01,0.00,29.5,28.5,00.0,38.5,31.3,21.9,0000.0,0011.22,0003.28,0001.40
2022-05-29 23:02:00,,0810.7,4.99,0.00,29.5,28.5,00.0,38.5,31.3,21.5,0000.0,0010.95,0003.25,0001.39
2022-05-29 23:03:00,,0810.7,5.01,0.00,29.5,28.5,00.0,38.5,31.3,21.3,0000.0,0010.46,0003.21,0001.39
2022-05-29 23:04:00,,0810.7,5.00,0.00,29.5,28.5,00.0,38.5,31.3,21.8,0000.0,0010.53,0003.18,0001.37
2022-05-29 23:05:00,,0810.6,5.00,0.00,29.5,28.5,00.0,38.5,31.3,21.1,0000.0,0010.57,0003.08,0001.36
2022-05-29 23:06:00,,0810.6,5.00,0.00,29.5,28.5,00.0,38.5,31.3,21.1,0000.0,0010.51,0002.98,0001.34
2022-05-29 23:07:00,,0810.6,5.01,0.00,29.5,28.5,00.0,38.5,31.3,21.4,0000.0,0010.47,0002.95,0001.34
2022-05-29 23:08:00,,0810.6,4.99,0.00,29.5,28.5,00.0,38.5,31.3,21.5,0000.0,0010.14,0002.84,0001.33
2022-05-29 23:09:00,,0810.6,4.99,0.00,29.5,28.5,00.0,38.5,31.3,21.6,0000.0,0009.43,0002.76,0001.32
2022-05-29 23:10:00,,0810.6,5.01,0.00,29.5,28.5,00.0,38.5,31.3,21.4,0000.0,0008.91,0002.64,0001.30
2022-05-29 23:11:00,,0810.6,4.99,0.00,29.5,28.5,00.0,38.5,31.3,21.4,0000.0,0008.01,0002.58,0001.28
2022-05-29 23:12:00,,0810.7,5.00,0.00,29.5,28.5,00.0,38.5,31.3,20.8,0000.0,0007.33,0002.52,0001.27
2022-05-29 23:13:00,,0810.6,4.99,0.00,29.5,28.5,00.0,38.5,31.3,21.0,0000.0,0007.55,0002.53,0001.25
2022-05-29 23:14:00,,0810.6,5.02,0.00,29.5,28.5,00.0,38.5,31.3,20.9,0000.0,0007.74,0002.53,0001.24
2022-05-29 23:15:00,,0810.6,5.01,0.00,29.5,28.5,00.0,38.5,31.3,20.7,0000.0,0007.34,0002.51,0001.24
2022-05-29 23:16:00,,0810.7,5.00,0.00,29.5,28.5,00.0,38.5,31.3,19.7,0000.0,0006.59,0002.48,0001.23
2022-05-29 23:17:00,,0810.7,4.99,0.00,29.5,28.5,00.0,38.5,31.3,19.7,0000.0,0006.47,0002.48,0001.22
2022-05-29 23:18:00,,0810.7,5.01,0.00,29.5,28.5,00.0,38.5,31.3,19.6,0000.0,0006.17,0002.39,0001.21
2022-05-29 23:19:00,,0810.6,4.99,0.00,29.5,28.5,00.0,38.5,31.3,19.5,0000.0,0006.43,0002.38,0001.19
2022-05-29 23:20:00,,0810.7,4.99,0.00,29.5,28.5,00.0,38.5,31.3,19.7,0000.0,0006.53,0002.36,0001.18
2022-05-29 23:21:00,,0810.7,5.01,0.00,29.5,28.5,00.0,38.5,31.3,19.6,0000.0,0006.47,0002.35,0001.18
2022-05-29 23:22:00,,0810.7,4.99,0.00,29.5,28.5,00.0,38.5,31.3,19.8,0000.0,0006.19,0002.36,0001.19
2022-05-29 23:23:00,,0810.7,4.99,0.00,29.5,28.5,00.0,38.5,31.3,20.1,0000.0,0006.09,0002.31,0001.18
2022-05-29 23:24:00,,0810.8,5.02,0.00,29.5,28.4,00.0,38.5,31.3,20.3,0000.0,0005.40,0002.22,0001.18
2022-05-29 23:25:00,,0810.8,5.00,0.00,29.5,28.4,00.0,38.5,31.3,20.5,0000.0,0004.91,0002.15,0001.18
2022-05-29 23:26:00,,0810.7,4.99,0.00,29.5,28.4,00.0,38.5,31.3,21.1,0000.0,0004.85,0002.10,0001.17
2022-05-29 23:27:00,,0810.6,5.00,0.00,29.5,28.5,00.0,38.5,31.3,21.1,0000.0,0004.92,0002.12,0001.17
2022-05-29 23:28:00,,0810.6,5.00,0.00,29.5,28.5,00.0,38.5,31.3,20.7,0000.0,0004.67,0002.07,0001.17
2022-05-29 23:29:00,,0810.6,4.99,0.00,29.5,28.5,00.0,38.5,31.3,21.4,0000.0,0004.31,0002.01,0001.18
2022-05-29 23:30:00,,0810.6,5.01,0.00,29.5,28.5,00.0,38.5,31.3,20.9,0000.0,0003.86,0001.96,0001.18
2022-05-29 23:31:00,,0810.6,5.01,0.00,29.5,28.5,00.0,38.5,31.3,20.5,0000.0,0004.08,0001.96,0001.19
2022-05-29 23:32:00,,0810.6,4.98,0.00,29.5,28.5,00.0,38.5,31.3,20.7,0000.0,0004.52,0002.05,0001.20
2022-05-29 23:33:00,,0810.7,5.00,0.00,29.5,28.5,00.0,38.5,31.3,21.4,0000.0,0004.71,0002.12,0001.21
2022-05-29 23:34:00,,0810.7,4.99,0.00,29.5,28.5,00.0,38.5,31.3,21.1,0000.0,0005.04,0002.20,0001.23
2022-05-29 23:35:00,,0810.8,5.00,0.00,29.5,28.5,00.0,38.5,31.3,20.6,0000.0,0005.51,0002.30,0001.26
2022-05-29 23:36:00,,0810.9,5.00,0.00,29.5,28.5,00.0,38.5,31.3,21.0,0000.0,0005.57,0002.35,0001.28
2022-05-29 23:37:00,,0810.8,5.00,0.00,29.5,28.5,00.0,38.5,31.4,21.3,0000.0,0005.64,0002.42,0001.32
2022-05-29 23:38:00,,0810.7,5.01,0.00,29.5,28.5,00.0,38.5,31.4,20.8,0000.0,0005.73,0002.49,0001.34
2022-05-29 23:39:00,,0810.7,4.99,0.00,29.5,28.5,00.0,38.5,31.4,20.2,0000.0,0005.72,0002.48,0001.36
2022-05-29 23:40:00,,0810.6,4.99,0.00,29.6,28.5,00.0,38.5,31.4,20.0,0000.0,0006.00,0002.57,0001.39
2022-05-29 23:41:00,,0810.6,4.99,0.00,29.6,28.6,00.0,38.5,31.4,19.8,0000.0,0006.00,0002.62,0001.41
2022-05-29 23:42:00,,0810.7,5.02,0.00,29.6,28.6,00.0,38.5,31.4,20.1,0000.0,0006.02,0002.69,0001.44
2022-05-29 23:43:00,,0810.6,5.00,0.00,29.6,28.6,00.0,38.5,31.4,20.4,0000.0,0005.50,0002.68,0001.46
2022-05-29 23:44:00,,0810.6,5.00,0.00,29.6,28.6,00.0,38.5,31.4,20.4,0000.0,0005.56,0002.71,0001.48
2022-05-29 23:45:00,,0810.6,5.01,0.00,29.6,28.6,00.0,38.5,31.4,20.3,0000.0,0005.40,0002.69,0001.50
2022-05-29 23:46:00,,0810.6,5.00,0.00,29.6,28.6,00.0,38.5,31.5,20.0,0000.0,0004.84,0002.59,0001.49
2022-05-29 23:47:00,,0810.6,5.00,0.00,29.6,28.6,00.0,38.5,31.5,19.6,0000.0,0005.17,0002.61,0001.49
2022-05-29 23:48:00,,0810.6,5.00,0.00,29.6,28.6,00.0,38.5,31.5,19.3,0000.0,0005.72,0002.64,0001.47
2022-05-29 23:49:00,,0810.7,4.99,0.00,29.6,28.6,00.0,38.6,31.5,19.7,0000.0,0006.20,0002.56,0001.47
2022-05-29 23:50:00,,0810.8,5.00,0.00,29.6,28.7,00.0,38.6,31.5,19.7,0000.0,0006.53,0002.60,0001.47
2022-05-29 23:51:00,,0810.8,5.00,0.00,29.6,28.7,00.0,38.6,31.5,19.9,0000.0,0006.95,0002.58,0001.47
2022-05-29 23:52:00,,0810.9,4.99,0.00,29.7,28.7,00.0,38.6,31.5,19.9,0000.0,0007.06,0002.60,0001.45
2022-05-29 23:53:00,,0810.9,4.99,0.00,29.7,28.7,00.0,38.6,31.5,20.3,0000.0,0006.98,0002.59,0001.44
2022-05-29 23:54:00,,0810.9,5.01,0.00,29.7,28.7,00.0,38.6,31.5,20.5,0000.0,0006.97,0002.59,0001.43
2022-05-29 23:55:00,,0811.0,4.98,0.00,29.7,28.7,00.0,38.6,31.5,20.0,0000.0,0007.08,0002.61,0001.43
2022-05-29 23:56:00,,0811.0,5.00,0.00,29.7,28.7,00.0,38.6,31.5,19.9,0000.0,0007.33,0002.66,0001.42
2022-05-29 23:57:00,,0810.9,5.02,0.00,29.7,28.7,00.0,38.6,31.5,19.7,0000.0,0007.59,0002.73,0001.42
2022-05-29 23:58:00,,0811.0,4.99,0.00,29.7,28.7,00.0,38.6,31.5,19.8,0000.0,0007.46,0002.72,0001.42
2022-05-29 23:59:00,,0810.9,4.98,0.00,29.7,28.7,00.0,38.6,31.5,19.7,0000.0,0006.95,0002.65,0001.43
